Year,Month,Day,Hour,Minute,Value (Times are PST for windgust in km/hr)
2021,08,07,00,00,9.60
2021,08,07,00,01,9.60
2021,08,07,00,02,8.10
2021,08,07,00,03,8.10
2021,08,07,00,04,8.10
2021,08,07,00,05,8.10
2021,08,07,00,06,6.40
2021,08,07,00,07,8.10
2021,08,07,00,08,8.10
2021,08,07,00,09,6.40
2021,08,07,00,10,6.40
2021,08,07,00,11,8.10
2021,08,07,00,12,8.10
2021,08,07,00,13,4.80
2021,08,07,00,14,6.40
2021,08,07,00,15,3.20
2021,08,07,00,16,4.80
2021,08,07,00,17,3.20
2021,08,07,00,18,1.60
2021,08,07,00,19,6.40
2021,08,07,00,21,3.20
2021,08,07,00,22,4.80
2021,08,07,00,23,3.20
2021,08,07,00,24,3.20
2021,08,07,00,25,6.40
2021,08,07,00,26,6.40
2021,08,07,00,27,1.60
2021,08,07,00,28,4.80
2021,08,07,00,29,6.40
2021,08,07,00,30,4.80
2021,08,07,00,31,3.20
2021,08,07,00,32,4.80
2021,08,07,00,33,3.20
2021,08,07,00,34,6.40
2021,08,07,00,35,4.80
2021,08,07,00,36,4.80
2021,08,07,00,37,3.20
2021,08,07,00,38,1.60
2021,08,07,00,39,1.60
2021,08,07,00,40,4.80
2021,08,07,00,41,6.40
2021,08,07,00,42,6.40
2021,08,07,00,43,6.40
2021,08,07,00,44,6.40
2021,08,07,00,45,4.80
2021,08,07,00,46,6.40
2021,08,07,00,47,6.40
2021,08,07,00,48,6.40
2021,08,07,00,49,1.60
2021,08,07,00,50,3.20
2021,08,07,00,51,3.20
2021,08,07,00,52,4.80
2021,08,07,00,53,6.40
2021,08,07,00,54,4.80
2021,08,07,00,55,3.20
2021,08,07,00,56,1.60
2021,08,07,01,01,4.80
2021,08,07,01,02,3.20
2021,08,07,01,03,3.20
2021,08,07,01,04,1.60
2021,08,07,01,05,3.20
2021,08,07,01,06,1.60
2021,08,07,01,07,3.20
2021,08,07,01,08,4.80
2021,08,07,01,09,6.40
2021,08,07,01,10,4.80
2021,08,07,01,11,4.80
2021,08,07,01,12,3.20
2021,08,07,01,13,3.20
2021,08,07,01,14,3.20
2021,08,07,01,15,4.80
2021,08,07,01,16,3.20
2021,08,07,01,17,1.60
2021,08,07,01,18,1.60
2021,08,07,01,19,1.60
2021,08,07,01,20,3.20
2021,08,07,01,21,1.60
2021,08,07,01,22,1.60
2021,08,07,01,23,3.20
2021,08,07,01,24,3.20
2021,08,07,01,25,1.60
2021,08,07,01,26,4.80
2021,08,07,01,27,4.80
2021,08,07,01,28,8.10
2021,08,07,01,29,4.80
2021,08,07,01,30,3.20
2021,08,07,01,31,1.60
2021,08,07,01,32,3.20
2021,08,07,01,33,3.20
2021,08,07,01,34,1.60
2021,08,07,01,35,1.60
2021,08,07,01,50,1.60
2021,08,07,01,51,1.60
2021,08,07,01,52,3.20
2021,08,07,01,53,1.60
2021,08,07,01,54,1.60
2021,08,07,01,57,1.60
2021,08,07,01,58,1.60
2021,08,07,02,29,1.60
2021,08,07,02,30,3.20
2021,08,07,02,31,3.20
2021,08,07,02,32,3.20
2021,08,07,02,33,1.60
2021,08,07,03,33,1.60
2021,08,07,03,37,1.60
2021,08,07,03,38,3.20
2021,08,07,03,39,1.60
2021,08,07,03,40,1.60
2021,08,07,03,41,3.20
2021,08,07,03,42,1.60
2021,08,07,03,44,1.60
2021,08,07,03,45,3.20
2021,08,07,03,46,1.60
2021,08,07,03,47,3.20
2021,08,07,03,48,3.20
2021,08,07,03,49,4.80
2021,08,07,03,50,4.80
2021,08,07,03,51,3.20
2021,08,07,03,52,4.80
2021,08,07,03,53,6.40
2021,08,07,03,54,4.80
2021,08,07,03,55,8.10
2021,08,07,03,56,6.40
2021,08,07,03,57,8.10
2021,08,07,03,58,9.60
2021,08,07,03,59,6.40
2021,08,07,04,00,4.80
2021,08,07,04,01,6.40
2021,08,07,04,02,4.80
2021,08,07,04,03,6.40
2021,08,07,04,04,4.80
2021,08,07,04,05,6.40
2021,08,07,04,06,4.80
2021,08,07,04,07,4.80
2021,08,07,04,08,4.80
2021,08,07,04,09,3.20
2021,08,07,04,10,4.80
2021,08,07,04,11,4.80
2021,08,07,04,12,4.80
2021,08,07,04,13,3.20
2021,08,07,04,14,1.60
2021,08,07,04,15,4.80
2021,08,07,04,16,4.80
2021,08,07,04,17,4.80
2021,08,07,04,18,1.60
2021,08,07,04,19,4.80
2021,08,07,04,20,4.80
2021,08,07,04,21,3.20
2021,08,07,04,22,4.80
2021,08,07,04,23,3.20
2021,08,07,04,24,8.10
2021,08,07,04,25,6.40
2021,08,07,04,26,4.80
2021,08,07,04,27,6.40
2021,08,07,04,28,8.10
2021,08,07,04,29,6.40
2021,08,07,04,30,8.10
2021,08,07,04,31,6.40
2021,08,07,04,32,6.40
2021,08,07,04,33,6.40
2021,08,07,04,34,4.80
2021,08,07,04,35,4.80
2021,08,07,04,36,6.40
2021,08,07,04,37,6.40
2021,08,07,04,38,6.40
2021,08,07,04,39,4.80
2021,08,07,04,40,8.10
2021,08,07,04,41,6.40
2021,08,07,04,42,6.40
2021,08,07,04,43,4.80
2021,08,07,04,44,6.40
2021,08,07,04,45,6.40
2021,08,07,04,46,6.40
2021,08,07,04,47,4.80
2021,08,07,04,48,4.80
2021,08,07,04,49,6.40
2021,08,07,04,50,6.40
2021,08,07,04,51,4.80
2021,08,07,04,52,6.40
2021,08,07,04,53,4.80
2021,08,07,04,54,4.80
2021,08,07,04,55,4.80
2021,08,07,04,56,3.20
2021,08,07,04,57,3.20
2021,08,07,04,58,4.80
2021,08,07,04,59,6.40
2021,08,07,05,00,3.20
2021,08,07,05,01,4.80
2021,08,07,05,02,6.40
2021,08,07,05,03,4.80
2021,08,07,05,04,6.40
2021,08,07,05,05,6.40
2021,08,07,05,06,4.80
2021,08,07,05,07,6.40
2021,08,07,05,08,3.20
2021,08,07,05,09,4.80
2021,08,07,05,10,4.80
2021,08,07,05,11,3.20
2021,08,07,05,12,3.20
2021,08,07,05,13,4.80
2021,08,07,05,14,4.80
2021,08,07,05,15,4.80
2021,08,07,05,16,3.20
2021,08,07,05,19,3.20
2021,08,07,05,21,1.60
2021,08,07,05,22,3.20
2021,08,07,05,23,6.40
2021,08,07,05,24,4.80
2021,08,07,05,25,3.20
2021,08,07,05,26,4.80
2021,08,07,05,27,3.20
2021,08,07,05,28,3.20
2021,08,07,05,29,3.20
2021,08,07,05,30,4.80
2021,08,07,05,31,1.60
2021,08,07,05,32,1.60
2021,08,07,05,33,3.20
2021,08,07,05,34,1.60
2021,08,07,05,35,6.40
2021,08,07,05,36,4.80
2021,08,07,05,37,4.80
2021,08,07,05,38,6.40
2021,08,07,05,39,6.40
2021,08,07,05,40,6.40
2021,08,07,05,41,6.40
2021,08,07,05,42,6.40
2021,08,07,05,43,8.10
2021,08,07,05,44,6.40
2021,08,07,05,45,4.80
2021,08,07,05,46,4.80
2021,08,07,05,47,4.80
2021,08,07,05,48,1.60
2021,08,07,05,49,3.20
2021,08,07,05,50,3.20
2021,08,07,05,51,3.20
2021,08,07,05,52,1.60
2021,08,07,05,53,1.60
2021,08,07,05,54,1.60
2021,08,07,05,55,3.20
2021,08,07,06,02,1.60
2021,08,07,06,03,3.20
2021,08,07,06,04,3.20
2021,08,07,06,05,1.60
2021,08,07,06,06,3.20
2021,08,07,06,07,3.20
2021,08,07,06,08,3.20
2021,08,07,06,09,1.60
2021,08,07,06,10,1.60
2021,08,07,06,11,3.20
2021,08,07,06,12,3.20
2021,08,07,06,13,3.20
2021,08,07,06,14,4.80
2021,08,07,06,15,3.20
2021,08,07,06,16,3.20
2021,08,07,06,17,3.20
2021,08,07,06,21,3.20
2021,08,07,06,22,1.60
2021,08,07,06,23,1.60
2021,08,07,06,24,1.60
2021,08,07,06,26,1.60
2021,08,07,06,27,3.20
2021,08,07,06,28,1.60
2021,08,07,06,29,3.20
2021,08,07,06,30,1.60
2021,08,07,06,43,3.20
2021,08,07,06,44,1.60
2021,08,07,06,48,1.60
2021,08,07,06,58,3.20
2021,08,07,06,59,4.80
2021,08,07,07,00,4.80
2021,08,07,07,01,3.20
2021,08,07,07,02,1.60
2021,08,07,07,03,1.60
2021,08,07,07,04,1.60
2021,08,07,07,11,1.60
2021,08,07,07,12,1.60
2021,08,07,07,13,3.20
2021,08,07,07,14,1.60
2021,08,07,07,15,3.20
2021,08,07,07,16,3.20
2021,08,07,07,17,4.80
2021,08,07,07,18,1.60
2021,08,07,07,19,1.60
2021,08,07,07,20,3.20
2021,08,07,07,21,3.20
2021,08,07,07,22,1.60
2021,08,07,07,23,1.60
2021,08,07,07,24,3.20
2021,08,07,07,25,1.60
2021,08,07,07,26,3.20
2021,08,07,07,27,3.20
2021,08,07,07,28,3.20
2021,08,07,07,29,6.40
2021,08,07,07,30,6.40
2021,08,07,07,31,4.80
2021,08,07,07,32,1.60
2021,08,07,07,33,1.60
2021,08,07,07,34,1.60
2021,08,07,07,41,3.20
2021,08,07,07,42,3.20
2021,08,07,07,44,4.80
2021,08,07,07,46,1.60
2021,08,07,07,47,3.20
2021,08,07,07,48,3.20
2021,08,07,07,54,1.60
2021,08,07,07,55,4.80
2021,08,07,07,56,4.80
2021,08,07,07,57,3.20
2021,08,07,07,58,4.80
2021,08,07,07,59,6.40
2021,08,07,08,00,6.40
2021,08,07,08,01,6.40
2021,08,07,08,02,3.20
2021,08,07,08,03,4.80
2021,08,07,08,04,3.20
2021,08,07,08,05,1.60
2021,08,07,08,06,3.20
2021,08,07,08,07,8.10
2021,08,07,08,08,6.40
2021,08,07,08,09,6.40
2021,08,07,08,10,4.80
2021,08,07,08,11,9.60
2021,08,07,08,12,8.10
2021,08,07,08,13,9.60
2021,08,07,08,14,11.30
2021,08,07,08,15,6.40
2021,08,07,08,16,9.60
2021,08,07,08,17,6.40
2021,08,07,08,18,3.20
2021,08,07,08,19,4.80
2021,08,07,08,20,6.40
2021,08,07,08,21,4.80
2021,08,07,08,22,4.80
2021,08,07,08,23,6.40
2021,08,07,08,24,8.10
2021,08,07,08,25,9.60
2021,08,07,08,26,3.20
2021,08,07,08,28,3.20
2021,08,07,08,29,6.40
2021,08,07,08,30,6.40
2021,08,07,08,31,9.60
2021,08,07,08,32,6.40
2021,08,07,08,33,4.80
2021,08,07,08,34,9.60
2021,08,07,08,35,11.30
2021,08,07,08,36,8.10
2021,08,07,08,37,8.10
2021,08,07,08,38,9.60
2021,08,07,08,39,6.40
2021,08,07,08,40,11.30
2021,08,07,08,41,8.10
2021,08,07,08,42,8.10
2021,08,07,08,43,3.20
2021,08,07,08,44,3.20
2021,08,07,08,45,1.60
2021,08,07,08,46,4.80
2021,08,07,08,47,4.80
2021,08,07,08,48,4.80
2021,08,07,08,49,3.20
2021,08,07,08,50,3.20
2021,08,07,08,51,3.20
2021,08,07,08,52,6.40
2021,08,07,08,53,4.80
2021,08,07,08,54,4.80
2021,08,07,08,55,8.10
2021,08,07,08,56,4.80
2021,08,07,08,57,6.40
2021,08,07,08,58,11.30
2021,08,07,08,59,8.10
2021,08,07,09,00,4.80
2021,08,07,09,01,8.10
2021,08,07,09,02,6.40
2021,08,07,09,03,4.80
2021,08,07,09,04,4.80
2021,08,07,09,05,4.80
2021,08,07,09,06,9.60
2021,08,07,09,07,3.20
2021,08,07,09,11,1.60
2021,08,07,09,12,1.60
2021,08,07,09,14,1.60
2021,08,07,09,15,1.60
2021,08,07,09,16,6.40
2021,08,07,09,17,6.40
2021,08,07,09,18,4.80
2021,08,07,09,19,6.40
2021,08,07,09,20,4.80
2021,08,07,09,21,4.80
2021,08,07,09,22,6.40
2021,08,07,09,23,6.40
2021,08,07,09,24,3.20
2021,08,07,09,25,3.20
2021,08,07,09,26,1.60
2021,08,07,09,27,3.20
2021,08,07,09,28,4.80
2021,08,07,09,29,3.20
2021,08,07,09,30,3.20
2021,08,07,09,31,4.80
2021,08,07,09,32,6.40
2021,08,07,09,33,4.80
2021,08,07,09,34,4.80
2021,08,07,09,35,6.40
2021,08,07,09,36,4.80
2021,08,07,09,37,4.80
2021,08,07,09,38,4.80
2021,08,07,09,39,4.80
2021,08,07,09,40,6.40
2021,08,07,09,41,6.40
2021,08,07,09,42,4.80
2021,08,07,09,43,4.80
2021,08,07,09,44,3.20
2021,08,07,09,45,1.60
2021,08,07,09,46,1.60
2021,08,07,09,47,3.20
2021,08,07,09,48,8.10
2021,08,07,09,49,6.40
2021,08,07,09,50,8.10
2021,08,07,09,51,8.10
2021,08,07,09,52,4.80
2021,08,07,09,53,4.80
2021,08,07,09,54,3.20
2021,08,07,09,55,3.20
2021,08,07,09,56,4.80
2021,08,07,09,57,4.80
2021,08,07,09,58,3.20
2021,08,07,09,59,4.80
2021,08,07,10,00,4.80
2021,08,07,10,01,1.60
2021,08,07,10,04,1.60
2021,08,07,10,05,3.20
2021,08,07,10,06,1.60
2021,08,07,10,08,3.20
2021,08,07,10,09,3.20
2021,08,07,10,10,1.60
2021,08,07,10,11,1.60
2021,08,07,10,16,1.60
2021,08,07,10,17,3.20
2021,08,07,10,18,3.20
2021,08,07,10,19,1.60
2021,08,07,10,21,1.60
2021,08,07,10,22,4.80
2021,08,07,10,23,3.20
2021,08,07,10,24,6.40
2021,08,07,10,25,6.40
2021,08,07,10,26,6.40
2021,08,07,10,27,3.20
2021,08,07,10,28,6.40
2021,08,07,10,29,6.40
2021,08,07,10,30,6.40
2021,08,07,10,31,11.30
2021,08,07,10,32,9.60
2021,08,07,10,33,8.10
2021,08,07,10,34,1.60
2021,08,07,10,35,8.10
2021,08,07,10,36,11.30
2021,08,07,10,37,8.10
2021,08,07,10,38,11.30
2021,08,07,10,39,11.30
2021,08,07,10,40,14.50
2021,08,07,10,41,11.30
2021,08,07,10,42,8.10
2021,08,07,10,43,6.40
2021,08,07,10,44,8.10
2021,08,07,10,45,11.30
2021,08,07,10,46,9.60
2021,08,07,10,47,3.20
2021,08,07,10,49,4.80
2021,08,07,10,50,3.20
2021,08,07,10,51,3.20
2021,08,07,10,52,3.20
2021,08,07,10,53,6.40
2021,08,07,10,54,6.40
2021,08,07,10,55,9.60
2021,08,07,10,56,9.60
2021,08,07,10,57,6.40
2021,08,07,10,58,9.60
2021,08,07,10,59,1.60
2021,08,07,11,00,6.40
2021,08,07,11,01,4.80
2021,08,07,11,02,8.10
2021,08,07,11,03,6.40
2021,08,07,11,04,1.60
2021,08,07,11,05,1.60
2021,08,07,11,06,3.20
2021,08,07,11,07,3.20
2021,08,07,11,08,4.80
2021,08,07,11,10,3.20
2021,08,07,11,11,3.20
2021,08,07,11,12,6.40
2021,08,07,11,13,4.80
2021,08,07,11,14,4.80
2021,08,07,11,15,1.60
2021,08,07,11,16,1.60
2021,08,07,11,17,6.40
2021,08,07,11,18,4.80
2021,08,07,11,19,3.20
2021,08,07,11,20,4.80
2021,08,07,11,21,3.20
2021,08,07,11,22,1.60
2021,08,07,11,23,1.60
2021,08,07,11,24,6.40
2021,08,07,11,25,4.80
2021,08,07,11,26,3.20
2021,08,07,11,27,3.20
2021,08,07,11,28,1.60
2021,08,07,11,29,3.20
2021,08,07,11,30,1.60
2021,08,07,11,31,3.20
2021,08,07,11,32,3.20
2021,08,07,11,33,1.60
2021,08,07,11,34,4.80
2021,08,07,11,35,1.60
2021,08,07,11,36,1.60
2021,08,07,11,39,4.80
2021,08,07,11,40,1.60
2021,08,07,11,43,8.10
2021,08,07,11,44,8.10
2021,08,07,11,45,8.10
2021,08,07,11,46,8.10
2021,08,07,11,47,8.10
2021,08,07,11,48,1.60
2021,08,07,11,49,3.20
2021,08,07,11,50,6.40
2021,08,07,11,51,3.20
2021,08,07,11,52,6.40
2021,08,07,11,53,8.10
2021,08,07,11,54,3.20
2021,08,07,11,55,3.20
2021,08,07,11,56,3.20
2021,08,07,11,57,6.40
2021,08,07,11,58,1.60
2021,08,07,12,00,1.60
2021,08,07,12,01,8.10
2021,08,07,12,02,1.60
2021,08,07,12,03,3.20
2021,08,07,12,04,6.40
2021,08,07,12,05,6.40
2021,08,07,12,06,3.20
2021,08,07,12,07,8.10
2021,08,07,12,08,8.10
2021,08,07,12,09,6.40
2021,08,07,12,10,12.90
2021,08,07,12,11,11.30
2021,08,07,12,12,8.10
2021,08,07,12,13,4.80
2021,08,07,12,14,4.80
2021,08,07,12,15,3.20
2021,08,07,12,16,4.80
2021,08,07,12,17,6.40
2021,08,07,12,18,3.20
2021,08,07,12,19,8.10
2021,08,07,12,20,8.10
2021,08,07,12,21,3.20
2021,08,07,12,22,6.40
2021,08,07,12,23,3.20
2021,08,07,12,24,4.80
2021,08,07,12,25,8.10
2021,08,07,12,26,6.40
2021,08,07,12,27,8.10
2021,08,07,12,28,8.10
2021,08,07,12,29,6.40
2021,08,07,12,30,6.40
2021,08,07,12,31,8.10
2021,08,07,12,32,1.60
2021,08,07,12,33,3.20
2021,08,07,12,34,3.20
2021,08,07,12,35,6.40
2021,08,07,12,36,4.80
2021,08,07,12,37,6.40
2021,08,07,12,38,6.40
2021,08,07,12,39,3.20
2021,08,07,12,40,4.80
2021,08,07,12,41,8.10
2021,08,07,12,42,4.80
2021,08,07,12,43,9.60
2021,08,07,12,44,8.10
2021,08,07,12,45,8.10
2021,08,07,12,46,8.10
2021,08,07,12,47,8.10
2021,08,07,12,48,6.40
2021,08,07,12,49,6.40
2021,08,07,12,50,8.10
2021,08,07,12,51,8.10
2021,08,07,12,52,8.10
2021,08,07,12,53,8.10
2021,08,07,12,54,3.20
2021,08,07,12,56,8.10
2021,08,07,12,57,11.30
2021,08,07,12,58,6.40
2021,08,07,12,59,8.10
2021,08,07,13,00,8.10
2021,08,07,13,01,8.10
2021,08,07,13,02,6.40
2021,08,07,13,03,8.10
2021,08,07,13,04,4.80
2021,08,07,13,05,4.80
2021,08,07,13,06,8.10
2021,08,07,13,07,11.30
2021,08,07,13,08,8.10
2021,08,07,13,09,6.40
2021,08,07,13,10,3.20
2021,08,07,13,11,11.30
2021,08,07,13,12,9.60
2021,08,07,13,13,8.10
2021,08,07,13,14,6.40
2021,08,07,13,15,6.40
2021,08,07,13,16,9.60
2021,08,07,13,17,9.60
2021,08,07,13,18,8.10
2021,08,07,13,19,3.20
2021,08,07,13,20,9.60
2021,08,07,13,21,8.10
2021,08,07,13,22,6.40
2021,08,07,13,23,3.20
2021,08,07,13,24,8.10
2021,08,07,13,25,8.10
2021,08,07,13,26,11.30
2021,08,07,13,27,9.60
2021,08,07,13,28,9.60
2021,08,07,13,29,9.60
2021,08,07,13,30,6.40
2021,08,07,13,31,8.10
2021,08,07,13,32,11.30
2021,08,07,13,33,6.40
2021,08,07,13,34,12.90
2021,08,07,13,35,12.90
2021,08,07,13,36,9.60
2021,08,07,13,37,6.40
2021,08,07,13,38,6.40
2021,08,07,13,39,8.10
2021,08,07,13,40,9.60
2021,08,07,13,41,9.60
2021,08,07,13,42,9.60
2021,08,07,13,43,6.40
2021,08,07,13,44,11.30
2021,08,07,13,45,8.10
2021,08,07,13,46,9.60
2021,08,07,13,47,8.10
2021,08,07,13,48,8.10
2021,08,07,13,49,6.40
2021,08,07,13,50,11.30
2021,08,07,13,51,8.10
2021,08,07,13,52,9.60
2021,08,07,13,53,11.30
2021,08,07,13,54,8.10
2021,08,07,13,55,8.10
2021,08,07,13,56,9.60
2021,08,07,13,57,16.10
2021,08,07,13,58,11.30
2021,08,07,13,59,11.30
2021,08,07,14,00,11.30
2021,08,07,14,01,11.30
2021,08,07,14,02,8.10
2021,08,07,14,03,14.50
2021,08,07,14,04,8.10
2021,08,07,14,05,11.30
2021,08,07,14,06,6.40
2021,08,07,14,07,12.90
2021,08,07,14,08,12.90
2021,08,07,14,09,8.10
2021,08,07,14,10,12.90
2021,08,07,14,11,11.30
2021,08,07,14,12,8.10
2021,08,07,14,13,8.10
2021,08,07,14,14,9.60
2021,08,07,14,15,9.60
2021,08,07,14,16,9.60
2021,08,07,14,17,11.30
2021,08,07,14,18,11.30
2021,08,07,14,19,9.60
2021,08,07,14,20,8.10
2021,08,07,14,21,6.40
2021,08,07,14,22,4.80
2021,08,07,14,23,4.80
2021,08,07,14,24,6.40
2021,08,07,14,25,4.80
2021,08,07,14,26,6.40
2021,08,07,14,27,11.30
2021,08,07,14,28,4.80
2021,08,07,14,29,6.40
2021,08,07,14,30,6.40
2021,08,07,14,31,8.10
2021,08,07,14,32,6.40
2021,08,07,14,33,14.50
2021,08,07,14,34,14.50
2021,08,07,14,35,14.50
2021,08,07,14,36,8.10
2021,08,07,14,37,19.30
2021,08,07,14,38,12.90
2021,08,07,14,39,17.70
2021,08,07,14,40,11.30
2021,08,07,14,41,11.30
2021,08,07,14,42,20.90
2021,08,07,14,43,12.90
2021,08,07,14,44,14.50
2021,08,07,14,45,19.30
2021,08,07,14,46,12.90
2021,08,07,14,47,14.50
2021,08,07,14,48,17.70
2021,08,07,14,49,14.50
2021,08,07,14,50,19.30
2021,08,07,14,51,14.50
2021,08,07,14,52,14.50
2021,08,07,14,53,17.70
2021,08,07,14,54,19.30
2021,08,07,14,55,20.90
2021,08,07,14,56,17.70
2021,08,07,14,57,22.50
2021,08,07,14,58,16.10
2021,08,07,14,59,20.90
2021,08,07,15,00,12.90
2021,08,07,15,01,16.10
2021,08,07,15,02,24.20
2021,08,07,15,03,22.50
2021,08,07,15,04,20.90
2021,08,07,15,05,16.10
2021,08,07,15,06,17.70
2021,08,07,15,07,24.20
2021,08,07,15,08,24.20
2021,08,07,15,09,19.30
2021,08,07,15,10,20.90
2021,08,07,15,11,22.50
2021,08,07,15,12,17.70
2021,08,07,15,13,12.90
2021,08,07,15,14,12.90
2021,08,07,15,15,22.50
2021,08,07,15,16,17.70
2021,08,07,15,17,14.50
2021,08,07,15,18,20.90
2021,08,07,15,19,19.30
2021,08,07,15,20,20.90
2021,08,07,15,21,20.90
2021,08,07,15,22,24.20
2021,08,07,15,23,19.30
2021,08,07,15,24,11.30
2021,08,07,15,25,20.90
2021,08,07,15,26,14.50
2021,08,07,15,27,16.10
2021,08,07,15,28,17.70
2021,08,07,15,29,19.30
2021,08,07,15,30,12.90
2021,08,07,15,31,11.30
2021,08,07,15,32,17.70
2021,08,07,15,33,14.50
2021,08,07,15,34,19.30
2021,08,07,15,35,9.60
2021,08,07,15,36,17.70
2021,08,07,15,37,12.90
2021,08,07,15,38,24.20
2021,08,07,15,39,25.70
2021,08,07,15,40,19.30
2021,08,07,15,41,12.90
2021,08,07,15,42,19.30
2021,08,07,15,43,16.10
2021,08,07,15,44,17.70
2021,08,07,15,45,27.40
2021,08,07,15,46,20.90
2021,08,07,15,47,22.50
2021,08,07,15,48,24.20
2021,08,07,15,49,17.70
2021,08,07,15,50,17.70
2021,08,07,15,51,20.90
2021,08,07,15,52,16.10
2021,08,07,15,53,16.10
2021,08,07,15,54,25.70
2021,08,07,15,55,22.50
2021,08,07,15,56,8.10
2021,08,07,15,57,20.90
2021,08,07,15,58,12.90
2021,08,07,15,59,17.70
2021,08,07,16,00,16.10
2021,08,07,16,01,11.30
2021,08,07,16,02,14.50
2021,08,07,16,03,8.10
2021,08,07,16,04,17.70
2021,08,07,16,05,17.70
2021,08,07,16,06,19.30
2021,08,07,16,07,17.70
2021,08,07,16,08,12.90
2021,08,07,16,09,17.70
2021,08,07,16,10,16.10
2021,08,07,16,11,17.70
2021,08,07,16,12,17.70
2021,08,07,16,13,20.90
2021,08,07,16,14,17.70
2021,08,07,16,15,22.50
2021,08,07,16,16,14.50
2021,08,07,16,17,22.50
2021,08,07,16,18,24.20
2021,08,07,16,19,35.40
2021,08,07,16,20,24.20
2021,08,07,16,21,19.30
2021,08,07,16,22,24.20
2021,08,07,16,23,24.20
2021,08,07,16,24,17.70
2021,08,07,16,25,16.10
2021,08,07,16,26,22.50
2021,08,07,16,27,25.70
2021,08,07,16,28,17.70
2021,08,07,16,29,17.70
2021,08,07,16,30,19.30
2021,08,07,16,31,11.30
2021,08,07,16,32,20.90
2021,08,07,16,33,14.50
2021,08,07,16,34,14.50
2021,08,07,16,35,11.30
2021,08,07,16,36,20.90
2021,08,07,16,37,20.90
2021,08,07,16,38,29.00
2021,08,07,16,39,25.70
2021,08,07,16,40,30.60
2021,08,07,16,41,32.20
2021,08,07,16,42,17.70
2021,08,07,16,43,16.10
2021,08,07,16,44,37.00
2021,08,07,16,45,24.20
2021,08,07,16,46,24.20
2021,08,07,16,47,27.40
2021,08,07,16,48,20.90
2021,08,07,16,49,32.20
2021,08,07,16,50,32.20
2021,08,07,16,51,27.40
2021,08,07,16,52,29.00
2021,08,07,16,53,25.70
2021,08,07,16,54,30.60
2021,08,07,16,55,33.80
2021,08,07,16,56,30.60
2021,08,07,16,57,29.00
2021,08,07,16,58,24.20
2021,08,07,16,59,37.00
2021,08,07,17,00,20.90
2021,08,07,17,01,38.60
2021,08,07,17,02,24.20
2021,08,07,17,03,24.20
2021,08,07,17,04,20.90
2021,08,07,17,05,35.40
2021,08,07,17,06,38.60
2021,08,07,17,07,25.70
2021,08,07,17,08,35.40
2021,08,07,17,09,27.40
2021,08,07,17,10,16.10
2021,08,07,17,11,22.50
2021,08,07,17,12,29.00
2021,08,07,17,13,37.00
2021,08,07,17,14,27.40
2021,08,07,17,15,41.80
2021,08,07,17,16,35.40
2021,08,07,17,17,54.70
2021,08,07,17,18,45.10
2021,08,07,17,19,54.70
2021,08,07,17,20,32.20
2021,08,07,17,21,20.90
2021,08,07,17,22,33.80
2021,08,07,17,23,30.60
2021,08,07,17,24,25.70
2021,08,07,17,25,29.00
2021,08,07,17,26,32.20
2021,08,07,17,27,27.40
2021,08,07,17,28,37.00
2021,08,07,17,29,30.60
2021,08,07,17,30,37.00
2021,08,07,17,31,41.80
2021,08,07,17,32,30.60
2021,08,07,17,33,19.30
2021,08,07,17,34,20.90
2021,08,07,17,35,37.00
2021,08,07,17,36,22.50
2021,08,07,17,37,45.10
2021,08,07,17,38,29.00
2021,08,07,17,39,32.20
2021,08,07,17,40,27.40
2021,08,07,17,41,35.40
2021,08,07,17,42,27.40
2021,08,07,17,43,33.80
2021,08,07,17,44,30.60
2021,08,07,17,45,29.00
2021,08,07,17,46,30.60
2021,08,07,17,47,37.00
2021,08,07,17,48,30.60
2021,08,07,17,49,19.30
2021,08,07,17,50,32.20
2021,08,07,17,51,43.50
2021,08,07,17,52,33.80
2021,08,07,17,53,32.20
2021,08,07,17,54,43.50
2021,08,07,17,55,45.10
2021,08,07,17,56,29.00
2021,08,07,17,57,38.60
2021,08,07,17,58,37.00
2021,08,07,17,59,33.80
2021,08,07,18,00,27.40
2021,08,07,18,01,29.00
2021,08,07,18,02,32.20
2021,08,07,18,03,35.40
2021,08,07,18,04,33.80
2021,08,07,18,05,33.80
2021,08,07,18,06,35.40
2021,08,07,18,07,35.40
2021,08,07,18,08,35.40
2021,08,07,18,09,29.00
2021,08,07,18,10,35.40
2021,08,07,18,11,40.20
2021,08,07,18,12,38.60
2021,08,07,18,13,37.00
2021,08,07,18,14,37.00
2021,08,07,18,15,24.20
2021,08,07,18,16,32.20
2021,08,07,18,17,24.20
2021,08,07,18,18,30.60
2021,08,07,18,19,41.80
2021,08,07,18,20,51.50
2021,08,07,18,21,29.00
2021,08,07,18,22,24.20
2021,08,07,18,23,40.20
2021,08,07,18,24,22.50
2021,08,07,18,25,49.90
2021,08,07,18,26,35.40
2021,08,07,18,27,30.60
2021,08,07,18,28,29.00
2021,08,07,18,29,35.40
2021,08,07,18,30,30.60
2021,08,07,18,31,43.50
2021,08,07,18,32,38.60
2021,08,07,18,33,33.80
2021,08,07,18,34,33.80
2021,08,07,18,35,33.80
2021,08,07,18,36,27.40
2021,08,07,18,37,33.80
2021,08,07,18,38,38.60
2021,08,07,18,39,35.40
2021,08,07,18,40,32.20
2021,08,07,18,41,33.80
2021,08,07,18,42,37.00
2021,08,07,18,43,27.40
2021,08,07,18,44,43.50
2021,08,07,18,45,32.20
2021,08,07,18,46,30.60
2021,08,07,18,47,51.50
2021,08,07,18,48,35.40
2021,08,07,18,49,19.30
2021,08,07,18,50,35.40
2021,08,07,18,51,51.50
2021,08,07,18,52,41.80
2021,08,07,18,53,33.80
2021,08,07,18,54,30.60
2021,08,07,18,55,30.60
2021,08,07,18,56,56.30
2021,08,07,18,57,32.20
2021,08,07,18,58,40.20
2021,08,07,18,59,40.20
2021,08,07,19,00,38.60
2021,08,07,19,01,45.10
2021,08,07,19,02,37.00
2021,08,07,19,03,33.80
2021,08,07,19,04,19.30
2021,08,07,19,05,24.20
2021,08,07,19,06,40.20
2021,08,07,19,07,35.40
2021,08,07,19,08,37.00
2021,08,07,19,09,49.90
2021,08,07,19,10,29.00
2021,08,07,19,11,43.50
2021,08,07,19,12,30.60
2021,08,07,19,13,32.20
2021,08,07,19,14,56.30
2021,08,07,19,15,33.80
2021,08,07,19,16,43.50
2021,08,07,19,17,35.40
2021,08,07,19,18,40.20
2021,08,07,19,19,38.60
2021,08,07,19,20,35.40
2021,08,07,19,21,37.00
2021,08,07,19,22,30.60
2021,08,07,19,23,29.00
2021,08,07,19,24,27.40
2021,08,07,19,25,22.50
2021,08,07,19,26,32.20
2021,08,07,19,27,41.80
2021,08,07,19,28,33.80
2021,08,07,19,29,30.60
2021,08,07,19,30,35.40
2021,08,07,19,31,38.60
2021,08,07,19,32,29.00
2021,08,07,19,33,30.60
2021,08,07,19,34,40.20
2021,08,07,19,35,30.60
2021,08,07,19,36,38.60
2021,08,07,19,37,37.00
2021,08,07,19,38,37.00
2021,08,07,19,39,33.80
2021,08,07,19,40,38.60
2021,08,07,19,41,37.00
2021,08,07,19,42,33.80
2021,08,07,19,43,35.40
2021,08,07,19,44,46.70
2021,08,07,19,45,49.90
2021,08,07,19,46,35.40
2021,08,07,19,47,41.80
2021,08,07,19,48,48.30
2021,08,07,19,49,32.20
2021,08,07,19,50,33.80
2021,08,07,19,51,45.10
2021,08,07,19,52,41.80
2021,08,07,19,53,30.60
2021,08,07,19,54,33.80
2021,08,07,19,55,35.40
2021,08,07,19,56,37.00
2021,08,07,19,57,38.60
2021,08,07,19,58,37.00
2021,08,07,19,59,38.60
2021,08,07,20,00,38.60
2021,08,07,20,01,29.00
2021,08,07,20,02,32.20
2021,08,07,20,03,33.80
2021,08,07,20,04,32.20
2021,08,07,20,05,38.60
2021,08,07,20,06,35.40
2021,08,07,20,07,35.40
2021,08,07,20,08,25.70
2021,08,07,20,09,24.20
2021,08,07,20,10,29.00
2021,08,07,20,11,24.20
2021,08,07,20,12,29.00
2021,08,07,20,13,24.20
2021,08,07,20,14,30.60
2021,08,07,20,15,33.80
2021,08,07,20,16,20.90
2021,08,07,20,17,32.20
2021,08,07,20,18,24.20
2021,08,07,20,19,22.50
2021,08,07,20,20,19.30
2021,08,07,20,21,17.70
2021,08,07,20,22,22.50
2021,08,07,20,23,20.90
2021,08,07,20,24,25.70
2021,08,07,20,25,20.90
2021,08,07,20,26,14.50
2021,08,07,20,27,16.10
2021,08,07,20,28,20.90
2021,08,07,20,29,25.70
2021,08,07,20,30,22.50
2021,08,07,20,31,24.20
2021,08,07,20,32,12.90
2021,08,07,20,33,19.30
2021,08,07,20,34,19.30
2021,08,07,20,35,27.40
2021,08,07,20,36,24.20
2021,08,07,20,37,20.90
2021,08,07,20,38,22.50
2021,08,07,20,39,16.10
2021,08,07,20,40,16.10
2021,08,07,20,41,19.30
2021,08,07,20,42,14.50
2021,08,07,20,43,27.40
2021,08,07,20,44,20.90
2021,08,07,20,45,27.40
2021,08,07,20,46,20.90
2021,08,07,20,47,14.50
2021,08,07,20,48,14.50
2021,08,07,20,49,14.50
2021,08,07,20,50,19.30
2021,08,07,20,51,25.70
2021,08,07,20,52,20.90
2021,08,07,20,53,11.30
2021,08,07,20,54,17.70
2021,08,07,20,55,14.50
2021,08,07,20,56,19.30
2021,08,07,20,57,16.10
2021,08,07,20,58,9.60